[[{"header":{"parameterUnit":"m.s-1","parameterCategory":1,"la1":30.2992,"la2":30.254,"lo1":-89.0895,"lo2":-89.0443,"dy":0.0025,"dx":0.0025,"nx":19,"ny":19,"refTime":"2026-03-16T21:00:00:Z","depth":0,"parameterNumber":2,"parameterNumberName":"U-component_of_WINDS"},"data":[0,0,0,1.5047,1.5046,1.4975,1.4975,1.4899,1.4898,0,0,0,0,0,0,0,0,0,0,0,1.5078,1.5077,1.5047,1.5046,1.4975,1.4975,1.4899,1.4898,0,0,0,0,0,0,0,0,0,0,0,1.5078,1.5077,1.5077,1.5046,1.4975,1.4975,1.4899,1.4947,0,0,0,0,0,0,0,0,0,0,1.5013,1.5051,1.5078,1.5077,1.5045,1.4975,1.4975,1.4949,1.4944,1.4937,0,1.4935,0,1.4916,1.4894,1.4894,0,0,0,1.5038,1.5055,1.5028,1.5077,1.5045,1.4976,1.5005,1.4946,1.494,1.4931,1.4934,1.493,1.4915,1.4894,1.4894,1.4884,1.4885,0,0,1.5042,1.507,1.5032,1.5024,1.5037,1.5007,1.5003,1.4942,1.4947,1.4933,1.4928,1.4913,1.4894,1.4893,1.4884,1.4884,0,0,0,1.5058,1.5073,1.5046,1.5028,1.5014,1.5005,1.5,1.4949,1.4939,1.4927,1.4912,1.4893,1.4892,1.4884,1.4884,1.4927,0,0,0,1.506,1.5082,1.5048,1.5065,1.5016,1.4981,1.5009,1.4943,1.4935,1.4913,1.4893,1.4892,1.4883,1.4884,1.4925,1.4942,0,0,0,1.5079,1.5084,1.5077,1.5066,1.5037,1.4981,1.4967,1.4941,1.4926,1.4894,1.4892,1.4883,1.4884,1.4923,1.4939,1.4948,0,0,0,1.5106,1.5115,1.5079,1.5083,1.5038,1.5009,1.4967,1.4944,1.4921,1.4893,1.4883,1.4884,1.4923,1.4937,1.4946,1.496,1.4969,0,0,1.5133,1.5119,1.512,1.5085,1.507,1.5018,1.5009,1.4961,1.4932,1.4902,1.4901,1.4926,1.4939,1.4948,1.5008,1.5016,0,0,0,1.5137,1.5138,1.5128,1.5109,1.5075,1.5046,1.4997,1.498,1.4953,1.4922,1.4931,1.4938,1.4942,1.4947,1.4953,1.4955,1.4888,1.4888,1.4888,1.5213,1.5178,1.5176,1.5133,1.5115,1.5066,1.5048,1.5016,1.4983,1.4986,1.4976,1.5018,1.5025,1.503,1.5032,1.4981,1.4982,1.4982,1.4982,1.5249,1.5244,1.5204,1.5188,1.515,1.5135,1.5089,1.5067,1.5048,1.5022,1.5023,1.4997,1.5039,1.5039,1.4985,1.4984,1.4984,1.4984,1.4983,1.5294,1.5285,1.5266,1.5236,1.5217,1.5172,1.5157,1.5122,1.509,1.5092,1.5078,1.5077,1.5072,1.5088,1.5088,1.5088,1.5088,1.5088,1.5088,1.5348,1.5325,1.5316,1.5282,1.5266,1.5241,1.5194,1.5177,1.5149,1.5125,1.5125,1.5093,1.505,1.5039,1.509,1.509,1.509,1.509,1.5089,1.5396,1.538,1.5367,1.5352,1.531,1.5294,1.5251,1.522,1.5201,1.5195,1.5163,1.5137,1.512,1.5115,1.5106,1.5171,1.5171,1.5171,1.5171,1.5433,1.5423,1.5402,1.538,1.5354,1.5316,1.5302,1.5266,1.5226,1.5212,1.5198,1.5184,1.518,1.5165,1.5159,1.515,1.5225,1.5225,1.5225,1.5461,1.5446,1.5441,1.5404,1.5369,1.534,1.5326,1.5302,1.5253,1.5227,1.5201,1.5198,1.5175,1.5169,1.514,1.5132,1.5115,0,0]},{"header":{"parameterUnit":"m.s-1","parameterCategory":1,"la1":30.2992,"la2":30.254,"lo1":-89.0895,"lo2":-89.0443,"dy":0.0025,"dx":0.0025,"nx":19,"ny":19,"refTime":"2026-03-16T21:00:00:Z","depth":0,"parameterNumber":3,"parameterNumberName":"V-component_of_WINDS"},"data":[0,0,0,-7.7089,-7.7096,-7.7401,-7.7402,-7.7796,-7.7799,0,0,0,0,0,0,0,0,0,0,0,-7.7005,-7.7008,-7.7089,-7.7097,-7.7401,-7.7402,-7.7795,-7.7799,0,0,0,0,0,0,0,0,0,0,0,-7.7003,-7.7007,-7.7011,-7.7098,-7.74,-7.7402,-7.7794,-7.7562,0,0,0,0,0,0,0,0,0,0,-7.7265,-7.7194,-7.7006,-7.7011,-7.71,-7.74,-7.7402,-7.7551,-7.7577,-7.7661,0,-7.7739,0,-7.7776,-7.7826,-7.7828,0,0,0,-7.7092,-7.7172,-7.725,-7.7011,-7.7102,-7.74,-7.7262,-7.7565,-7.7594,-7.7695,-7.7745,-7.7759,-7.7782,-7.7829,-7.7831,-7.8338,-7.8341,0,0,-7.7075,-7.7062,-7.723,-7.7269,-7.7225,-7.7252,-7.7271,-7.7583,-7.7635,-7.7746,-7.7768,-7.7789,-7.7832,-7.7835,-7.8336,-7.8339,0,0,0,-7.703,-7.705,-7.712,-7.7253,-7.7307,-7.7261,-7.7283,-7.7622,-7.7645,-7.7773,-7.7794,-7.7834,-7.7839,-7.8333,-7.8337,-7.8454,0,0,0,-7.7019,-7.7024,-7.7113,-7.7108,-7.7302,-7.7469,-7.7315,-7.7624,-7.7659,-7.7792,-7.7834,-7.7843,-7.833,-7.8335,-7.8445,-7.8512,0,0,0,-7.6983,-7.702,-7.7066,-7.7107,-7.7237,-7.7464,-7.7506,-7.7632,-7.7673,-7.7828,-7.7844,-7.8328,-7.8334,-7.8437,-7.8498,-7.8642,0,0,0,-7.6939,-7.7165,-7.7068,-7.7327,-7.7235,-7.7535,-7.7504,-7.7728,-7.7875,-7.7836,-7.833,-7.8336,-7.8434,-7.849,-7.8633,-7.8762,-7.8814,0,0,-7.7217,-7.7198,-7.7352,-7.7274,-7.7589,-7.749,-7.7821,-7.7967,-7.7992,-7.822,-7.8233,-7.8448,-7.8497,-7.864,-7.911,-7.9152,0,0,0,-7.7435,-7.7546,-7.7632,-7.7773,-7.7891,-7.7997,-7.8094,-7.8147,-7.8343,-7.8108,-7.8539,-7.8569,-7.8653,-7.8715,-7.875,-7.8823,-7.8364,-7.8364,-7.8363,-7.7809,-7.7831,-7.8086,-7.8145,-7.8282,-7.8379,-7.8491,-7.858,-7.856,-7.8662,-7.873,-7.9013,-7.9085,-7.9112,-7.9188,-7.8799,-7.8799,-7.88,-7.88,-7.8218,-7.8377,-7.8347,-7.8585,-7.8605,-7.8803,-7.8905,-7.8885,-7.9071,-7.8963,-7.9039,-7.8919,-7.9157,-7.9224,-7.8809,-7.8808,-7.8807,-7.8806,-7.8805,-7.8466,-7.8546,-7.8609,-7.8815,-7.897,-7.902,-7.9201,-7.9213,-7.9224,-7.9299,-7.9372,-7.937,-7.937,-7.9333,-7.9334,-7.9335,-7.9336,-7.9336,-7.9337,-7.8699,-7.8766,-7.8918,-7.9063,-7.9154,-7.9276,-7.9376,-7.9466,-7.9568,-7.9561,-7.9562,-7.9532,-7.9176,-7.9086,-7.9352,-7.935,-7.9348,-7.9346,-7.9345,-7.9106,-7.9016,-7.9251,-7.9344,-7.9513,-7.9667,-7.9679,-7.9861,-7.9936,-8.0025,-7.9979,-7.9714,-7.9695,-7.9667,-7.9593,-7.9974,-7.9974,-7.9974,-7.9974,-7.9316,-7.9307,-7.9551,-7.9697,-7.9842,-7.9877,-8.014,-8.0219,-8.0286,-8.0334,-8.028,-8.0182,-8.0153,-8.0151,-8.0113,-8.0044,-8.0532,-8.0532,-8.0533,-7.9568,-7.9574,-7.9797,-7.9864,-7.9997,-8.011,-8.0359,-8.0526,-8.0582,-8.0555,-8.0371,-8.0348,-8.019,-8.0138,-8.0108,-8.0048,-7.9922,0,0]}]]